Regional Weather Roundup
Issued by NWS

Home | Current Version | Previous Version | Text Only | Print | Product List | Glossary Off
Versions: 1 2 3 4 5 6 7 8 9 10 11 12 13 14 15 16 17 18 19 20 21 22 23 24 25 26 27 28 29 30 31 32 33 34 35 36 37 38 39 40 41 42 43 44 45 46 47 48 49 50

274
ASUS44 KLIX 191110
RWRLA
LOUISIANA WEATHER ROUNDUP
NATIONAL WEATHER SERVICE NEW ORLEANS LA
500 AM CST FRI DEC 19 2014

NOTE: "FAIR" INDICATES FEW OR NO CLOUDS BELOW 12,000 FEET WITH NO
      SIGNIFICANT WEATHER AND/OR OBSTRUCTIONS TO VISIBILITY.
      SKY/WX - SKY CONDITION AND SIGNIFICANT WEATHER.
      TMP - AIR TEMPERATURE.    DP   - DEWPOINT TEMPERATURE.
      RH  - RELATIVE HUMIDITY.  PRES - PRESSURE.
      HX  - HEAT INDEX.         WCI  - WIND CHILL INDEX.

*  THESE STATIONS ARE NOT NWS OR FAA STATIONS AND ARE NOT UNDER
   NWS QUALITY CONTROL.

LAZ040-048-061>063-065-066-069-191200-
SOUTHEAST LOUISIANA

CITY           SKY/WX    TMP DP  RH WIND       PRES   REMARKS
N.O. AUDUBON     N/A     60  52  76 MISG        N/A
N.O. INTL ARPT CLOUDY    57  50  77 E12       30.05S
N.O. LAKEFRONT CLOUDY    58  50  75 E15       30.06R
N.O. DOWNTOWN* CLOUDY    57  48  72 E10G17    30.06R
SLIDELL        LGT RAIN  56  49  77 NE8       30.08R
BATON ROUGE    RAIN      53  52  96 NW3       30.07R FOG
BOOTHVILLE     CLOUDY    59  58  96 NE8       30.05F
BELLE CHASSE   CLOUDY    56  52  86 E9        30.06R
BOGALUSA*        N/A     54  50  87 NE6       30.09F
GALLIANO*      LGT RAIN  59  58  96 MISG      30.04F
NEW ROADS*     TSTM      54  54  97 NW8       30.12R
GONZALES*      CLOUDY    55  55 100 CALM      30.05R
HAMMOND*       NOT AVBL
HOUMA*         CLOUDY    59  59  98 NE7       30.03S FOG
PORT FOURCHON* CLOUDY    64  61  88 E8        30.05F

$$

LAZ041-044-053-054-191200-
SOUTHWEST LOUISIANA

CITY           SKY/WX    TMP DP  RH WIND       PRES   REMARKS
LAKE CHARLES   LGT RAIN  58  56  93 MISG      30.06F
LAFAYETTE      LGT RAIN  57  32  38 N6        30.08R
PATTERSON      CLOUDY    57  55  94 E7        30.03S
SALT POINT       N/A     62  58  86 VRB5      30.01R
NEW IBERIA     TSTM      59  56  89 NE3       30.06R FOG
CHENAULT AIRPK NOT AVBL

$$

LAZ027-028-191200-
CENTRAL LOUISIANA

CITY           SKY/WX    TMP DP  RH WIND       PRES   REMARKS
FORT POLK      LGT RAIN  51  50  97 NE5       30.09R FOG
ALEXANDRIA INT LGT RAIN  51  51 100 NE7       30.09R FOG
ALEXANDRIA     LGT RAIN  51  49  92 VRB3      30.11R

$$

LAZ001-002-191200-
NORTHWEST LOUISIANA

CITY           SKY/WX    TMP DP  RH WIND       PRES   REMARKS
SHREVEPORT     CLOUDY    50  47  89 E8        30.10F
BARKSDALE AFB  NOT AVBL
DTN SHREVEPORT CLOUDY    49  45  86 NE6       30.12F

$$

LAZ014-016-191200-
NORTHEAST LOUISIANA

CITY           SKY/WX    TMP DP  RH WIND       PRES   REMARKS
MONROE         CLOUDY    48  45  89 NE12      30.14F
TALLULAH       CLOUDY    50  43  77 NE8       30.13F

$$




USA.gov is the U.S. government's official web portal to all federal, state and local government web resources and services.